Regional Weather Roundup
Issued by NWS

Home | Current Version | Previous Version | Text Only | Print | Product List | Glossary On
Versions: 1 2 3 4 5 6 7 8 9 10 11 12 13 14 15 16 17 18 19 20 21 22 23 24 25 26 27 28 29 30 31 32 33 34 35 36 37 38 39 40 41 42 43 44 45 46 47 48 49 50
000
ASUS43 KMPX 241510
RWRMN
WEATHER ROUNDUP FOR MINNESOTA
NATIONAL WEATHER SERVICE TWIN CITIES/CHANHASSEN MN
1000 AM CDT FRI OCT 24 2014


NOTE: "FAIR" INDICATES FEW OR NO CLOUDS BELOW 12,000 FEET WITH NO
SIGNIFICANT WEATHER AND/OR OBSTRUCTIONS TO VISIBILITY. N/A MEANS
CURRENT SKY AND/OR WEATHER CONDITIONS ARE NOT AVAILABLE.

MNZ060>063-068>070-241600-
   Twin Cities Metro

CITY           SKY/WX    TMP DP  RH WIND       PRES   REMARKS
TWIN CITIES    PTSUNNY   53  47  79 SE8       29.89S
ST PAUL        MOSUNNY   54  49  83 SE12      29.90F
CRYSTAL        MOSUNNY   55  48  77 SE10      29.87S
BLAINE         PTSUNNY   55  52  88 SE7       29.88S
LAKEVILLE        N/A     54  48  82 CALM      29.89S
EDEN PRAIRIE   PTSUNNY   54  48  80 SE8       29.87S
SOUTH ST PAUL  MOSUNNY   53  49  87 SE5       29.89S
LAKE ELMO      PTSUNNY   54  50  87 S6        29.91R
$$
MNZ001>005-007-008-013>017-022>024-027-028-241600-
   Northwest Minnesota

CITY           SKY/WX    TMP DP  RH WIND       PRES   REMARKS
BEMIDJI        MOSUNNY   54  43  65 SW9       29.79S
HALLOCK        PTSUNNY   48  39  71 S9        29.72S
ROSEAU         PTSUNNY   52  43  71 S9        29.72S
WARROAD        PTSUNNY   52  43  71 SW7       29.73R
THIEF RVR FALL PTSUNNY   52  41  66 SW10      29.77S
CROOKSTON      MOSUNNY   48  43  81 SW9       29.79R
FOSSTON        MOSUNNY   52  43  71 S14       29.80R
DETROIT LAKES  MOSUNNY   54  45  71 W3        29.83R
MOORHEAD       PTSUNNY   46  46 100 S5        29.82S
PARK RAPIDS    SUNNY     51  45  79 S8        29.81F
$$
MNZ006-009>011-018-025>026-241600-
   North Central Minnesota

CITY           SKY/WX    TMP DP  RH WIND       PRES   REMARKS
BAUDETTE       PTSUNNY   54  41  61 SW8       29.72F
FLAG ISLAND    PTSUNNY   52  43  71 S5        29.69S
INTL FALLS     CLOUDY    57  43  59 SW10      29.74S
WASKISH        MOSUNNY   57  43  58 CALM      29.76S
BIG FORK       PTSUNNY   57  45  62 S12       29.79S
LONGVILLE        N/A     54  45  71 SW6       29.81S
GRAND RAPIDS   SUNNY     52  43  71 S13G18    29.82S
CRANE LAKE     CLOUDY    54  45  71 S10       29.79S
ORR            CLOUDY    55  43  62 S9        29.76S
COOK           CLOUDY    54  45  71 S10G17    29.80S
WALKER         FAIR      53  43  70 W7        29.79F
$$
MNZ012-019>021-037-241600-
   Northeast Minnesota

CITY           SKY/WX    TMP DP  RH WIND       PRES   REMARKS
DULUTH         MOSUNNY   53  46  77 S12       29.85F
ELY            CLOUDY    54  45  71 SW10G16   29.81F
HIBBING        PTSUNNY   51  46  83 VRB6      29.82F
EVELETH        CLOUDY    48  48 100 S6        29.83F
DULUTH HARBOR  MOSUNNY   50  48  93 CALM      29.87F
TWO HARBORS    CLOUDY    52  41  66 SW6       29.85S HAZE
SILVER BAY     CLOUDY    52  50  93 SW3       29.85S FOG
GRAND MARAIS     N/A     48  47  96 W3        29.87F
G MARAIS ARPRT FOG       45  43  93 S8        29.86F VSB 1/4
$$
MNZ029>031-032-039>041-046>048-054>057-064-241600-
   West Central Minnesota

CITY           SKY/WX    TMP DP  RH WIND       PRES   REMARKS
FERGUS FALLS   PTSUNNY   48  45  87 S7        29.85R
WHEATON        PTSUNNY   46  45  93 CALM      29.86S
MORRIS         PTSUNNY   48  45  87 CALM      29.84R
ALEXANDRIA     PTSUNNY   51  46  83 SW6       29.85S
ELBOW LAKE     FAIR      49  46  89 S7        29.84S
WADENA         MOSUNNY   48  45  87 S5        29.82S
GLENWOOD       PTSUNNY   52  46  82 SW6       29.85S
APPLETON       PTSUNNY   48  46  93 CALM      29.85R
BENSON         PTSUNNY   48  45  87 CALM      29.85S
ORTONVILLE     CLOUDY    46  45  93 CALM      29.84S
MADISON        CLOUDY    54  50  87 W6        29.85S
WILLMAR        FAIR      52  45  76 SE3       29.86S
$$
MNZ033>034-036-042>043-049>051-058-059-241600-
   Central Minnesota

CITY           SKY/WX    TMP DP  RH WIND       PRES   REMARKS
ST CLOUD       PTSUNNY   55  46  71 S6        29.85F
SAUK CENTRE    FAIR      49  44  81 CALM      29.85S
PAYNESVILLE    PTSUNNY   48  42  80 SE3       29.86R
AITKIN         SUNNY     55  46  71 S10       29.82S
PINE RIVER     SUNNY     52  45  76 S6        29.86S
BRAINERD       SUNNY     52  42  69 S8        29.85R
STAPLES        MOSUNNY   50  43  76 S7        29.83S
LONG PRAIRIE   FAIR      50  43  76 CALM      29.85S
LITTLE FALLS   MOSUNNY   52  41  66 SE8       29.84F
LITCHFIELD     PTSUNNY   54  48  82 S3        29.85F
BUFFALO        PTSUNNY   55  46  71 SE6       29.87S
MAPLE LAKE     PTSUNNY   55  49  78 SE6       29.86F
$$
MNZ037-044-045-052-053-241600-
   East Central Minnesota

CITY           SKY/WX    TMP DP  RH WIND       PRES   REMARKS
PRINCETON      MOSUNNY   55  48  76 SE8       29.85F
MORA           SUNNY     48  46  93 S5        29.88F
CAMBRIDGE      MOSUNNY   54  45  71 SE10      29.84F
RUSH CITY      MOSUNNY   51  48  88 S9        29.87F
MOOSE LAKE     MOSUNNY   52  46  82 S9        29.84F
HINCKLEY       FAIR      48  48 100 CALM      29.87F
CLOQUET        MOSUNNY   52  46  82 S5        29.85F
MCGREGOR       SUNNY     52  46  82 S8        29.85F
$$
MNZ071>073-080-081-089-090-097-098-241600-
   Southwest Minnesota

CITY           SKY/WX    TMP DP  RH WIND       PRES   REMARKS
MONTEVIDEO     CLOUDY    52  50  93 W5        29.86R
GRANITE FALLS  CLOUDY    51  48  90 W5        29.87R
CANBY          CLOUDY    53  51  90 W6        29.87S
MARSHALL       CLOUDY    54  48  82 W5        29.86R
REDWOOD FALLS  PTSUNNY   52  47  83 S6        29.85S
OLIVIA         PTSUNNY   54  46  76 S6        29.84S
PIPESTONE      CLOUDY    52  50  93 NW3       29.88S FOG
WINDOM         CLOUDY    55  52  88 SW7       29.87R
WORTHINGTON    CLOUDY    54  52  94 W10       29.89R
JACKSON        CLOUDY    55  52  88 SW9       29.88R
TRACY          CLOUDY    56  52  86 W3        29.87R
SLAYTON        CLOUDY    54  52  94 W9        29.88R FOG
$$
MNZ065>067-074>077-082>085-091>093-241600-
   South Central Minnesota

CITY           SKY/WX    TMP DP  RH WIND       PRES   REMARKS
MANKATO        PTSUNNY   57  46  67 S12       29.88S
NEW ULM          N/A     54  50  87 S8        29.86F
ST JAMES       PTSUNNY   55  50  82 S7        29.88S
FAIRMONT       PTSUNNY   55  50  82 S9        29.88S
GLENCOE        PTSUNNY   57  51  80 S7        29.86S
FARIBAULT      PTSUNNY   55  52  88 S8        29.89S
OWATONNA       PTSUNNY   55  50  82 S12G18    29.90R
WASECA         CLOUDY    55  48  76 S8        29.91R
ALBERT LEA     CLOUDY    54  52  94 S5        29.91R FOG
$$
MNZ078>079-086>088-094>096-241600-
   Southeast Minnesota

CITY           SKY/WX    TMP DP  RH WIND       PRES   REMARKS
ROCHESTER      PTSUNNY   52  51  97 S10       29.94S
RED WING       PTSUNNY   54  52  94 SE13      29.91F
STANTON        PTSUNNY   56  49  77 S9        29.88S
DODGE CENTER   PTSUNNY   55  52  88 S12       29.90F
WINONA         CLOUDY    54  52  94 SE8       29.97S
AUSTIN         PTSUNNY   54  52  94 S9        29.91S
PRESTON        PTSUNNY   52  51  98 S8        29.96S FOG
$$
ABBREVIATIONS USED IN REMARKS
   TC - TEMPERATURES IN CELSIUS
  WCI - WIND CHILL INDEX
   HX - HEAT INDEX
  VSB - VISIBILITY
$$



USA.gov is the U.S. government's official web portal to all federal, state and local government web resources and services.